This demonstration page uses our WeatherBlox Daily Observations layout. Learn more.

Left ArrowRight Arrow

41.55636, -103.73856

Hourly Observations for December 3, 2021

Temp ( °F °C ) Dew Point ( °F °C ) Humidity (%) Winds ( mph kmh ) Pressure ( in mb ) Visibility ( mi km ) Precip ( " mm )
12:58 am 00:58 Clear 40 4.2 30 -0.9 70 70 NE 12 19 30.03 1017 10 16 0.00 0.00
1:58 am 01:58 Clear 36 2.3 30 -1 79 79 E 10 17 30.06 1018 10 16 0.00 0.00
2:58 am 02:58 Clear 37 2.6 31 -0.4 81 81 E 8 13 30.07 1018 10 16 0.00 0.00
3:58 am 03:58 Clear 39 3.7 31 -0.3 75 75 Calm 30.09 1019 10 16 0.00 0.00
4:58 am 04:58 Clear 33 0.5 28 -2 84 84 WSW 5 7 30.16 1021 10 16 0.00 0.00
5:58 am 05:58 Clear 30 -1.3 28 -2.1 94 94 SW 6 9 30.20 1023 10 16 0.00 0.00
6:58 am 06:58 Clear 40 4.5 31 -0.7 69 69 Calm 30.15 1021 10 16 0.00 0.00
7:58 am 07:58 Sunny 32 0.1 28 -2.4 83 83 SSW 7 11 30.21 1023 10 16 0.00 0.00
8:58 am 08:58 Sunny 37 2.7 31 -0.7 79 79 Calm 30.20 1023 10 16 0.00 0.00
9:58 am 09:58 Sunny 44 6.9 31 -0.7 59 59 Calm 30.19 1023 10 16 0.00 0.00
10:58 am 10:58 Sunny 48 9 30 -1.2 49 49 SSE 6 9 30.20 1023 10 16 0.00 0.00
11:58 am 11:58 Sunny 51 10.6 27 -2.8 39 39 SE 7 11 30.15 1021 10 16 0.00 0.00
12:58 pm 12:58 Sunny 54 12 24 -4.2 32 32 S 10 17 30.12 1020 10 16 0.00 0.00
2:58 pm 14:58 Sunny 54 12.3 25 -4.1 32 32 SSE 12 19 30.11 1020 10 16 0.00 0.00
3:58 pm 15:58 Sunny 51 10.7 26 -3.6 37 37 SSE 10 17 30.14 1021 10 16 0.00 0.00
4:58 pm 16:58 Clear 45 7.2 24 -4.6 43 43 SSE 14 22 30.17 1022 10 16 0.00 0.00
5:58 pm 17:58 Clear 44 6.5 24 -4.6 45 45 SSE 16 26 30.19 1022 10 16 0.00 0.00
8:58 pm 20:58 Clear 37 3 26 -3.2 64 64 ENE 7 11 30.19 1022 10 16 0.00 0.00
9:58 pm 21:58 Clear 40 4.5 25 -3.7 56 56 ENE 6 9 30.17 1022 10 16 0.00 0.00
10:58 pm 22:58 Clear 41 4.9 25 -3.9 53 53 SSW 24 39 30.14 1021 10 16 0.00 0.00

Powered by AerisWeather